Temperature
18 18 18 18 18 18 18 18 18 18 18 18 18 18 18 18 18 18 18 17 17 17 17 17 17 17 17 17 17 17 17 16 16 16 16 16 16 16 16 16 16 15 15
18 18 18 18 18 18 18 18 18 18 18 18 18 18 18 18 18 18 17 17 17 17 17 17 17 17 17 17 17 17 17 17 16 16 16 16 16 16 16 16 15 15 15
18 18 18 18 18 18 18 18 18 17 17 17 18 17 17 18 18 17 17 17 17 17 17 17 17 17 17 17 17 17 17 17 16 16 16 16 16 16 16 16 15 15 15
18 18 18 18 18 18 18 18 18 18 17 17 18 17 17 17 18 17 17 17 17 17 17 17 17 17 17 17 17 17 17 17 16 16 16 16 16 16 16 15 15 15 15
18 18 18 18 18 18 18 18 17 18 18 18 18 17 17 17 17 17 17 17 17 17 17 17 17 17 17 17 17 17 17 17 16 16 16 16 16 16 16 15 15 15 15
18 18 18 18 18 18 18 18 18 17 18 18 17 17 17 17 17 17 17 17 17 17 17 17 17 17 17 17 17 17 17 16 16 16 16 16 16 16 16 15 15 15 15
18 18 18 18 18 18 18 18 17 17 17 17 17 17 17 17 17 17 17 17 17 17 17 17 17 17 17 17 17 17 17 17 16 16 16 16 16 16 16 15 15 15 15
18 18 18 18 18 18 18 17 17 17 17 17 17 17 17 17 17 17 17 17 17 17 17 17 17 17 17 17 17 17 17 17 16 16 16 16 16 16 16 15 15 15 15
18 18 18 18 18 18 18 17 17 17 17 17 17 17 17 17 17 17 17 17 17 17 17 17 17 17 17 17 17 17 17 17 16 16 16 16 16 16 16 15 15 15 15
18 18 18 18 18 18 18 18 18 17 17 17 17 17 17 17 17 16 17 17 17 17 17 17 17 17 17 17 16 16 16 16 16 16 16 16 15 15 15 15 15 15 15
18 18 18 18 18 18 18 18 18 17 17 17 17 17 17 17 17 16 16 17 17 17 17 16 16 16 16 16 16 16 16 16 16 16 16 15 15 15 15 15 15 14 14
18 18 18 18 18 18 18 18 17 17 17 17 17 17 17 17 17 16 16 16 16 17 16 16 16 16 16 16 16 16 16 16 16 16 16 15 15 15 15 15 14 14 14
18 18 18 18 18 18 18 17 17 17 17 17 17 17 17 17 16 16 16 16 16 16 16 16 16 16 16 16 16 16 16 16 15 15 15 15 15 15 15 14 14 14 14
18 18 18 18 18 18 18 17 17 17 17 17 17 17 16 16 16 16 16 16 16 15 15 15 15 15 15 15 15 15 15 15 15 15 15 15 15 14 14 14 14 14 14
18 18 18 18 18 18 17 17 17 17 17 17 17 16 16 16 16 16 16 16 16 15 15 15 15 15 15 15 15 15 15 15 15 15 15 14 14 14 14 14 14 14 13
18 18 18 18 18 18 17 17 17 17 17 16 16 16 16 16 16 16 16 16 16 16 15 15 15 15 15 15 14 14 14 14 14 14 14 14 14 14 14 14 13 13 13
18 18 18 18 17 17 17 17 17 17 16 16 16 16 16 16 16 16 16 16 16 15 15 15 14 14 14 14 14 14 14 14 14 14 14 13 13 13 13 13 13 13 13
18 18 18 18 17 17 17 17 17 16 16 16 16 15 15 15 15 15 15 15 15 15 15 14 14 14 14 14 13 13 13 13 13 13 13 13 13 13 13 13 13 13 12
18 18 17 17 17 17 17 17 16 16 16 16 15 15 15 15 15 15 15 15 15 14 14 14 14 13 13 13 13 13 13 13 13 13 12 12 12 12 12 12 12 12 12
18 17 17 17 17 17 17 17 16 16 16 15 15 15 15 15 15 15 14 14 14 14 14 14 13 13 13 12 12 12 12 12 12 12 12 12 12 12 12 12 12 12 12
17 17 17 17 17 17 16 16 16 16 16 15 15 15 14 14 14 14 14 14 14 14 13 13 13 12 12 12 12 12 12 11 11 11 11 12 12 11 11 11 11 11 11
17 17 17 17 16 16 16 16 16 16 15 15 15 15 14 14 14 14 14 14 13 13 13 13 12 12 12 12 11 11 11 11 11 11 11 11 11 11 11 11 11 11 11
17 16 16 16 16 16 16 16 15 15 15 15 15 14 14 14 14 14 14 13 13 13 12 12 12 12 12 12 11 11 11 11 11 11 10 11 10 10 11 10 10 10 10
16 16 16 16 16 15 15 15 15 15 15 15 14 14 14 14 14 13 13 13 13 12 12 12 12 12 11 11 11 11 11 11 11 10 10 10 10 10 10 10 10 10 10
16 16 16 15 15 15 15 15 14 14 14 14 14 14 13 13 13 13 13 13 12 12 12 12 11 11 11 11 11 11 10 10 10 10 10 10 10 10 10 10 10 9 9
16 15 15 15 15 15 14 14 14 14 14 14 13 13 13 13 12 12 12 12 12 12 11 11 11 11 11 11 10 10 10 10 10 10 10 9 9 9 9 9 9 9 9
Wind_Speed
4 4 4 4 4 5 4 3 3 3 2 3 3 4 5 8 10 11 11 15 15 15 14 13 13 13 12 12 11 11 10 10 10 10 10 9 9 9 9 8 8 8 8
6 5 4 4 4 5 5 4 3 2 2 1 1 1 4 7 9 11 12 14 15 15 15 14 14 14 13 13 12 12 12 11 11 11 11 10 10 10 10 9 9 9 9
8 6 4 3 4 5 5 3 2 1 1 1 1 1 2 5 7 10 11 12 13 15 15 15 15 15 14 14 14 13 13 13 12 12 12 12 11 11 11 10 10 10 10
8 6 3 3 5 5 4 2 2 2 1 1 1 1 1 2 5 8 10 10 11 11 13 15 15 15 15 16 15 15 15 14 14 14 14 13 13 12 12 11 11 11 11
8 6 4 4 5 3 2 2 2 2 1 1 1 1 1 1 2 5 6 9 11 11 11 13 15 15 16 16 16 16 16 16 16 16 16 15 15 14 14 13 13 13 12
8 6 4 4 4 2 2 2 2 2 2 2 1 1 1 2 2 3 4 6 9 10 11 10 11 13 15 15 16 16 16 16 17 17 17 17 17 16 16 15 15 14 14
8 6 3 3 3 3 3 3 2 2 1 1 1 1 2 1 1 2 2 3 4 7 8 9 9 9 9 13 15 16 16 16 16 16 15 16 16 15 15 15 15 15 15
7 6 4 3 3 2 2 3 3 2 1 2 2 1 1 3 2 1 1 2 3 3 4 7 7 8 8 8 10 14 15 16 15 15 15 15 16 16 15 15 15 14 14
6 5 5 4 3 3 3 3 3 4 3 2 3 3 2 3 2 2 1 1 1 1 2 3 6 7 8 7 8 10 14 15 15 15 15 15 15 15 15 14 14 14 14
5 6 5 5 3 3 3 3 3 3 3 2 2 2 3 4 2 1 2 1 1 1 2 2 3 5 7 7 8 9 11 12 13 14 14 15 15 15 15 15 14 13 13
3 4 5 4 3 3 3 3 3 3 3 3 3 2 2 2 3 3 3 2 1 1 1 1 2 3 4 5 6 7 9 11 11 12 12 13 13 14 14 14 14 13 12
2 3 4 4 3 3 3 4 3 3 4 3 3 3 3 2 3 3 3 3 2 2 1 1 1 2 3 3 4 5 7 8 10 10 10 11 12 12 13 13 13 13 13
2 3 3 3 3 3 3 3 3 3 4 4 4 3 3 4 3 3 3 3 2 2 1 0 1 2 2 3 3 5 5 6 7 8 9 9 10 11 11 12 12 12 12
3 3 3 3 3 3 3 2 2 3 3 4 4 3 3 3 2 3 3 3 2 2 1 1 1 1 1 2 3 4 3 5 5 6 7 8 8 8 9 9 10 10 9
3 3 3 3 2 2 2 2 2 3 2 3 3 3 2 2 2 3 3 4 4 3 3 2 1 1 1 2 1 2 2 2 3 3 4 6 6 6 6 6 7 6 7
3 3 3 2 2 1 1 1 1 1 1 1 2 1 2 2 1 1 2 2 2 3 3 2 1 1 1 2 2 2 2 2 2 3 3 4 4 5 5 5 5 6 6
3 3 3 2 2 1 0 1 1 1 1 1 1 1 1 1 0 0 1 1 2 2 2 1 0 0 1 1 2 2 2 2 2 2 3 4 4 4 4 5 5 5 6
3 3 3 3 2 1 0 1 1 0 1 1 1 0 1 0 0 1 1 1 1 2 3 2 1 0 0 0 1 2 2 2 3 2 3 3 3 4 4 4 4 5 5
3 3 3 3 2 1 1 1 1 1 1 1 1 1 1 1 1 1 1 1 1 1 2 3 2 0 0 0 1 1 1 2 2 2 2 2 3 3 3 3 3 4 4
4 3 3 3 2 2 1 1 1 1 1 0 0 1 1 1 2 2 1 1 1 2 2 3 2 1 0 0 1 0 1 1 1 1 2 1 1 2 2 2 3 3 4
4 4 3 2 2 2 1 1 1 2 1 1 1 1 1 2 2 2 2 2 2 2 3 3 2 1 1 1 1 1 1 1 2 1 1 1 0 0 1 2 3 4 4
3 4 3 3 2 1 1 2 3 2 1 1 1 1 1 2 2 2 2 3 3 3 4 3 2 2 2 2 1 1 1 0 1 1 0 2 1 1 2 2 2 4 4
3 3 3 3 2 1 1 2 3 3 2 2 2 2 2 2 2 1 2 3 2 2 4 4 4 4 3 3 3 2 2 2 3 2 1 2 2 2 3 2 3 4 5
3 3 3 3 2 1 2 3 3 3 3 2 2 2 2 1 1 2 3 3 2 1 1 2 3 3 3 4 4 4 3 2 1 1 1 1 2 3 3 3 4 4 5
3 3 3 3 3 1 2 3 4 2 2 2 2 2 3 2 1 3 4 3 2 2 3 2 2 3 3 4 4 2 2 1 1 2 1 1 2 2 2 3 4 5 5
4 3 3 2 3 2 2 3 4 3 2 2 2 2 3 3 3 4 4 3 2 1 2 3 3 2 2 2 3 3 3 2 1 2 2 2 1 1 1 2 3 4 5
Wind_Direction
175 181 185 188 200 202 201 210 218 225 211 225 212 176 158 160 167 170 177 181 181 182 183 182 183 185 185 184 184 186 185 185 185 184 184 185 185 184 185 183 182 182 182
174 169 173 185 200 203 199 195 196 190 171 167 221 182 161 166 170 176 182 186 190 191 193 193 193 194 194 194 194 195 194 195 196 195 195 195 195 195 196 196 196 195 193
170 169 167 182 203 204 194 179 179 143 141 152 192 213 177 180 178 181 185 188 195 201 202 202 201 202 202 202 202 202 203 203 203 203 204 204 205 204 204 205 206 205 204
172 166 167 192 196 182 168 157 158 126 138 163 203 239 195 181 188 187 185 189 194 203 210 211 210 210 210 209 209 209 210 211 210 210 211 211 210 210 210 211 212 211 209
174 170 174 189 183 167 164 181 157 152 166 209 233 234 223 221 205 198 190 194 194 199 206 214 216 215 217 218 217 216 216 216 216 217 217 217 217 216 215 215 216 216 214
179 173 177 179 171 155 169 165 167 171 187 205 239 306 283 246 223 202 205 202 201 203 206 210 214 219 220 221 222 223 222 221 220 221 221 222 222 221 220 220 221 220 217
182 175 173 172 169 175 190 179 165 171 210 168 92 355 341 304 245 232 207 191 200 208 206 211 214 212 219 225 227 226 225 223 222 221 221 221 221 220 221 223 223 221 220
187 183 174 180 181 177 187 185 166 169 213 169 149 124 335 339 339 267 201 189 208 200 198 213 208 208 214 217 224 226 225 225 225 225 224 223 223 222 222 223 223 221 220
181 176 175 174 184 181 194 199 185 177 200 220 174 160 172 227 289 315 263 201 198 201 209 204 209 214 216 218 222 225 226 226 225 225 223 222 221 221 220 219 219 219 219
189 183 180 180 185 189 193 203 192 188 182 212 226 202 194 181 190 274 320 289 233 242 248 240 210 206 213 216 220 222 226 228 229 229 228 224 221 220 220 218 217 216 215
199 190 184 183 188 198 200 206 200 191 190 200 205 208 218 214 191 197 253 281 305 263 236 234 191 190 202 208 213 217 218 219 224 231 233 231 228 225 223 222 221 219 217
207 204 191 192 201 207 207 206 205 200 209 205 206 203 197 201 205 196 220 241 259 273 287 261 227 184 190 195 211 216 208 208 216 224 230 231 228 225 222 224 222 220 218
195 212 202 197 206 212 209 202 205 214 210 208 212 220 217 221 203 192 194 225 247 271 276 296 242 176 187 190 212 223 215 206 207 217 223 229 230 226 221 222 223 222 221
204 204 195 191 203 208 211 207 214 222 219 220 228 222 227 236 211 191 188 189 222 270 262 256 324 167 177 178 199 201 193 199 205 213 218 223 225 223 221 219 220 220 218
191 180 183 185 194 197 207 202 224 235 227 224 227 227 234 244 219 211 190 179 182 213 243 235 234 306 117 121 145 161 170 186 197 208 212 211 215 219 213 212 210 206 210
172 159 169 173 176 196 204 187 222 227 201 233 216 210 244 251 225 191 183 188 183 186 213 225 219 225 135 108 84 100 137 163 182 205 209 194 193 200 198 200 198 192 190
155 154 162 147 125 120 151 154 187 163 178 244 247 209 255 261 69 200 178 177 171 154 178 249 295 70 69 81 64 76 87 96 107 152 172 174 185 186 183 183 183 189 192
163 160 141 134 138 132 200 183 203 185 189 239 260 219 248 272 332 184 153 156 164 155 155 181 214 9 15 105 89 75 82 85 96 102 129 146 153 156 163 167 168 177 185
146 134 130 131 134 136 141 182 180 166 178 205 218 186 209 155 187 172 143 162 178 161 152 160 181 218 276 133 76 48 58 65 79 84 103 139 151 158 165 172 177 181 185
135 136 136 137 138 130 119 110 137 135 108 133 148 164 171 164 173 176 165 166 153 136 136 147 159 162 191 262 122 80 10 355 353 49 64 75 149 166 180 193 196 186 185
139 138 134 128 122 122 125 137 145 138 127 88 46 94 128 119 120 145 149 160 150 146 146 148 161 169 181 152 202 214 220 305 321 311 11 349 27 32 259 227 214 205 192
135 131 133 134 123 140 145 130 137 138 133 129 92 50 90 91 91 114 141 153 156 160 165 164 177 193 205 201 189 185 181 226 276 269 296 302 302 288 270 235 225 207 194
134 130 134 131 131 115 84 94 112 126 120 119 113 96 83 67 86 108 94 88 101 141 167 169 179 200 199 201 185 194 216 220 237 226 196 273 280 272 261 253 241 226 213
148 147 143 141 134 92 83 86 103 108 98 96 104 113 105 57 61 107 105 84 61 44 176 165 185 204 202 196 191 196 205 207 268 259 166 231 258 258 260 253 254 242 229
152 155 153 149 140 99 78 101 115 106 99 91 98 95 102 85 68 109 108 100 67 27 43 92 146 165 165 166 158 130 137 145 276 272 231 185 232 258 271 263 252 242 237
154 149 145 149 146 140 108 107 124 122 111 85 63 67 77 84 83 109 114 115 106 50 51 52 55 65 99 142 153 160 173 179 212 254 230 183 200 170 273 273 258 250 243
Height
1565 1566 1567 1568 1569 1570 1571 1572 1573 1573 1574 1575 1576 1576 1576 1576 1576 1577 1577 1577 1577 1578 1578 1578 1579 1579 1580 1580 1580 1581 1582 1582 1583 1583 1584 1584 1585 1585 1586 1586 1587 1587 1588
1565 1566 1567 1568 1569 1570 1571 1572 1572 1573 1574 1575 1575 1576 1576 1576 1576 1576 1577 1577 1577 1577 1578 1578 1578 1579 1579 1580 1580 1580 1581 1581 1582 1582 1583 1583 1584 1584 1585 1585 1586 1586 1587
1565 1566 1567 1568 1569 1570 1570 1571 1572 1573 1574 1574 1575 1575 1575 1575 1576 1576 1576 1576 1577 1577 1577 1577 1578 1578 1578 1579 1579 1580 1580 1580 1581 1581 1582 1582 1583 1583 1584 1584 1585 1585 1586
1565 1566 1566 1567 1568 1569 1570 1570 1571 1572 1572 1573 1573 1574 1574 1574 1574 1575 1575 1575 1575 1576 1576 1576 1576 1577 1577 1577 1578 1578 1579 1579 1579 1580 1580 1581 1581 1582 1582 1583 1583 1584 1584
1564 1565 1565 1566 1567 1568 1569 1569 1570 1570 1571 1571 1572 1572 1573 1573 1573 1573 1573 1573 1574 1574 1574 1574 1575 1575 1575 1575 1576 1577 1577 1577 1577 1578 1578 1579 1579 1580 1580 1580 1581 1581 1582
1563 1564 1564 1565 1566 1566 1567 1568 1568 1569 1569 1570 1570 1570 1570 1571 1571 1571 1571 1571 1572 1572 1572 1573 1573 1573 1573 1574 1574 1574 1575 1575 1575 1576 1576 1576 1577 1577 1578 1578 1578 1579 1579
1562 1562 1563 1564 1564 1565 1565 1566 1566 1567 1567 1568 1568 1568 1568 1569 1569 1569 1569 1569 1570 1570 1570 1570 1570 1571 1571 1571 1572 1572 1572 1572 1573 1573 1573 1574 1574 1574 1574 1575 1575 1576 1576
1560 1561 1562 1562 1563 1563 1564 1564 1564 1565 1565 1566 1567 1566 1566 1567 1566 1567 1567 1567 1567 1567 1568 1568 1568 1568 1568 1568 1569 1569 1569 1569 1570 1570 1570 1570 1571 1571 1571 1572 1572 1572 1573
1559 1559 1560 1561 1561 1562 1562 1562 1562 1562 1563 1564 1564 1565 1565 1564 1564 1564 1564 1564 1564 1565 1565 1565 1565 1565 1565 1565 1566 1566 1566 1566 1566 1566 1567 1567 1567 1568 1568 1568 1569 1569 1569
1557 1558 1558 1559 1559 1559 1560 1560 1560 1560 1561 1561 1562 1562 1563 1562 1563 1562 1562 1562 1562 1562 1562 1562 1562 1562 1562 1562 1562 1563 1563 1563 1563 1563 1563 1563 1563 1564 1564 1565 1565 1565 1566
1555 1556 1556 1557 1557 1557 1557 1558 1558 1558 1558 1558 1559 1559 1559 1560 1560 1560 1559 1559 1559 1560 1560 1560 1560 1559 1559 1559 1559 1559 1559 1559 1559 1559 1559 1560 1560 1560 1560 1561 1561 1561 1562
1553 1554 1555 1555 1555 1555 1555 1555 1555 1555 1555 1556 1556 1556 1556 1557 1556 1556 1556 1556 1556 1557 1557 1557 1556 1556 1556 1556 1556 1556 1556 1556 1556 1556 1556 1556 1556 1556 1557 1557 1557 1557 1558
1551 1552 1553 1553 1553 1553 1553 1553 1553 1553 1553 1553 1553 1553 1553 1553 1554 1554 1554 1553 1553 1553 1554 1554 1553 1553 1553 1553 1552 1553 1553 1552 1552 1552 1552 1552 1552 1553 1553 1553 1553 1553 1554
1550 1550 1551 1551 1551 1550 1550 1550 1550 1550 1550 1550 1549 1550 1550 1550 1550 1550 1550 1551 1550 1550 1550 1550 1550 1550 1550 1550 1550 1549 1549 1549 1548 1548 1548 1548 1548 1548 1549 1549 1549 1549 1549
1548 1548 1549 1549 1549 1548 1548 1547 1547 1547 1546 1546 1546 1546 1546 1546 1547 1547 1547 1547 1548 1547 1547 1547 1547 1547 1547 1547 1547 1546 1546 1545 1545 1545 1544 1544 1544 1544 1544 1544 1545 1545 1545
1546 1546 1547 1547 1546 1546 1545 1544 1544 1543 1543 1543 1543 1543 1543 1543 1543 1543 1543 1544 1544 1544 1544 1544 1544 1544 1544 1544 1544 1543 1542 1542 1542 1541 1541 1540 1540 1541 1540 1541 1541 1541 1541
1544 1545 1545 1545 1544 1543 1542 1542 1541 1540 1540 1540 1540 1539 1539 1540 1540 1540 1540 1541 1541 1541 1540 1541 1541 1541 1541 1541 1541 1540 1540 1539 1539 1538 1538 1537 1537 1537 1537 1537 1537 1537 1538
1543 1543 1543 1543 1542 1541 1540 1539 1538 1537 1537 1537 1536 1536 1536 1536 1536 1537 1537 1537 1538 1538 1538 1537 1538 1538 1538 1538 1538 1537 1537 1536 1536 1536 1535 1535 1534 1534 1534 1534 1534 1534 1534
1541 1541 1541 1541 1540 1539 1538 1537 1536 1535 1535 1534 1534 1533 1533 1533 1533 1533 1534 1534 1534 1535 1535 1535 1534 1535 1535 1536 1535 1535 1534 1534 1534 1533 1533 1533 1532 1532 1531 1531 1531 1531 1531
1539 1539 1539 1539 1539 1538 1537 1535 1534 1534 1533 1532 1532 1531 1531 1531 1530 1531 1531 1531 1531 1532 1532 1532 1532 1532 1533 1533 1533 1532 1532 1532 1532 1532 1531 1531 1530 1530 1529 1529 1529 1529 1528
1537 1538 1538 1537 1537 1536 1535 1534 1533 1532 1531 1530 1530 1529 1529 1529 1528 1529 1529 1529 1529 1529 1529 1529 1529 1529 1530 1530 1530 1530 1530 1530 1529 1530 1529 1529 1528 1528 1527 1527 1526 1526 1526
1535 1535 1535 1535 1535 1534 1533 1532 1532 1531 1530 1529 1529 1528 1528 1527 1527 1527 1527 1527 1527 1527 1526 1526 1527 1527 1527 1527 1528 1528 1528 1527 1527 1528 1527 1527 1526 1526 1525 1525 1524 1523 1523
1533 1533 1533 1533 1532 1532 1531 1531 1530 1529 1528 1528 1527 1527 1526 1526 1526 1525 1525 1525 1525 1525 1525 1525 1525 1525 1525 1525 1525 1525 1525 1525 1525 1525 1525 1524 1524 1523 1523 1522 1522 1521 1521
1531 1531 1530 1530 1530 1529 1529 1529 1529 1528 1527 1527 1526 1526 1525 1525 1524 1524 1523 1523 1523 1523 1523 1523 1523 1523 1524 1524 1523 1523 1523 1523 1523 1523 1523 1522 1521 1521 1521 1521 1520 1519 1519
1528 1528 1528 1528 1527 1527 1527 1527 1526 1526 1525 1525 1525 1524 1524 1523 1523 1523 1522 1522 1522 1522 1522 1522 1522 1522 1522 1522 1521 1521 1521 1520 1520 1520 1520 1520 1519 1519 1518 1518 1518 1517 1517
1526 1526 1526 1525 1525 1525 1525 1525 1525 1524 1524 1523 1523 1523 1523 1523 1523 1522 1521 1521 1520 1520 1520 1520 1520 1520 1520 1519 1519 1519 1519 1518 1518 1518 1518 1517 1517 1516 1516 1515 1515 1515 1514